SCP
0 0 0 -0 -0 -0 0 0 0 0 0 0 0 0 0 0 0 0 0 0 0 0 0 0 0 0 0 0 0 0 0 0 1 1 1 1 1 1 1 0 0 0 0 0 0 0 0 0 0
0 0 0 -0 -0 -0 0 0 0 0 0 0 0 0 0 0 0 0 0 0 0 0 0 0 0 0 0 0 0 0 0 0 0 0 1 1 1 1 1 1 1 1 1 1 1 0 0 0 0
0 0 0 0 0 0 0 0 0 0 0 0 0 0 0 0 0 0 0 0 0 0 0 0 0 0 0 0 0 0 0 0 0 0 0 0 1 1 1 1 1 1 1 1 1 1 1 1 1
0 0 0 0 0 0 0 0 0 0 0 0 0 0 0 0 0 0 0 0 0 0 0 0 0 0 0 0 0 0 0 0 0 0 0 0 0 1 1 1 1 1 1 1 1 1 1 1 1
0 0 -0 0 0 0 0 0 0 0 0 0 0 0 0 0 0 0 0 0 0 0 0 0 0 0 0 0 0 0 0 0 0 0 0 0 0 0 0 0 1 1 1 1 1 1 1 1 1
0 0 -0 0 0 0 0 0 0 0 0 0 0 0 0 0 0 0 0 0 0 0 0 0 0 0 0 0 0 0 0 0 0 0 0 0 0 0 0 0 0 0 1 1 1 1 1 1 1
0 0 -0 0 0 0 0 0 0 0 0 0 0 0 0 0 0 0 0 0 0 0 0 0 0 0 0 0 0 0 0 0 0 0 0 0 0 0 0 0 0 0 0 1 1 1 1 1 1
0 0 0 0 0 0 0 0 0 0 0 0 0 0 0 0 0 0 0 0 0 0 0 0 0 0 0 0 0 0 0 0 0 0 0 0 0 0 0 0 0 0 0 0 0 1 1 1 1
0 0 0 0 0 0 0 0 0 0 0 0 0 0 0 0 0 0 0 0 0 0 0 0 0 0 0 0 0 0 0 0 0 0 0 0 0 0 0 0 0 0 0 0 0 0 1 1 1
0 0 0 0 0 0 0 0 0 0 0 0 0 0 0 0 0 0 0 0 0 0 0 0 0 0 0 0 0 0 0 0 0 0 0 0 0 0 0 0 0 0 0 0 0 0 0 0 1
0 0 0 0 0 0 0 0 0 0 0 0 0 0 0 0 0 0 0 0 0 0 0 0 0 0 0 0 0 0 0 0 0 0 0 0 0 0 0 0 0 0 0 0 0 0 0 0 0
0 0 0 0 0 0 0 0 0 0 0 0 0 0 0 0 0 0 0 0 0 0 0 0 0 0 0 0 0 0 0 0 0 0 0 0 0 0 0 0 0 0 0 0 0 0 0 0 0
0 0 0 0 0 0 0 0 0 0 0 0 0 0 0 0 0 0 0 0 0 0 0 0 0 0 0 0 0 0 0 0 0 0 0 0 0 0 0 0 0 0 0 0 0 0 0 0 0
0 0 0 0 0 0 0 0 0 0 0 0 0 0 0 0 0 0 0 0 0 0 0 0 0 0 0 0 0 0 0 0 0 0 0 0 0 -0 -0 0 0 0 0 0 0 0 0 0 0
0 0 0 0 0 0 0 0 0 0 0 0 0 0 0 0 0 0 0 0 0 0 0 0 0 0 0 0 0 0 0 0 0 0 0 0 0 -0 -0 0 0 0 0 0 0 0 0 0 0
0 0 0 0 0 0 0 0 0 0 0 0 0 0 0 0 0 0 0 0 0 0 0 0 0 0 0 0 0 0 0 0 0 0 0 0 0 -0 -0 0 0 0 0 0 0 0 0 0 0
0 0 0 0 0 0 0 0 0 0 0 0 0 0 0 0 0 0 0 0 0 0 0 0 0 0 0 0 0 0 0 0 0 0 0 0 0 -0 -0 0 0 0 0 0 0 0 0 0 0
0 0 0 0 0 0 0 0 0 0 0 0 0 0 0 0 0 0 0 0 0 0 0 0 0 0 0 0 0 0 0 0 0 0 0 0 -0 0 0 0 0 0 0 0 0 0 0 0 0
0 0 0 0 0 0 0 0 0 0 0 0 0 0 0 0 0 0 0 0 0 0 0 0 0 0 0 0 0 0 0 0 0 0 0 0 -0 0 0 0 0 0 0 0 0 0 0 0 0
0 0 0 0 0 0 0 0 0 0 0 0 0 0 0 0 0 0 0 0 0 0 0 0 0 0 0 0 0 0 0 0 0 0 0 0 0 0 0 0 0 0 0 0 0 0 0 0 0
0 0 0 0 0 0 0 0 0 0 0 0 0 0 0 0 0 0 0 0 0 0 0 0 0 0 0 0 0 0 0 0 0 0 0 0 0 0 0 0 0 0 0 0 0 0 0 0 0
0 0 0 0 0 0 0 0 0 0 0 0 0 0 0 0 0 0 0 0 0 0 0 0 0 0 0 0 0 0 0 0 0 0 0 0 0 0 0 0 0 0 0 0 0 0 0 0 0
0 0 0 0 0 0 0 0 0 0 0 0 0 0 0 0 0 0 0 0 0 0 0 0 0 0 0 0 0 0 0 0 0 0 0 0 0 0 0 0 0 0 0 0 0 0 0 0 0
0 0 0 0 0 0 0 0 0 0 0 0 0 0 0 0 0 0 0 0 0 0 0 0 0 0 0 0 0 0 0 0 0 0 0 0 0 0 0 0 0 0 0 0 0 0 0 0 0
0 0 0 0 0 0 0 0 0 0 0 0 0 0 0 0 0 0 0 0 0 0 0 0 0 0 0 0 0 0 0 0 0 0 0 0 0 0 0 -0 -0 -0 -0 0 0 0 0 0 0
0 0 0 0 0 0 0 0 0 0 0 0 0 0 0 0 0 0 0 0 0 0 0 0 0 0 0 0 0 0 0 0 0 0 0 0 0 0 0 0 0 -0 -0 0 0 0 0 0 0
0 0 0 0 0 0 0 0 0 0 0 0 0 0 0 0 0 0 0 0 0 0 0 0 0 0 0 0 0 0 0 0 0 0 0 0 0 0 0 0 0 0 0 0 0 0 0 0 0
0 0 0 0 0 0 0 0 0 0 0 0 0 0 0 0 0 0 0 0 0 0 0 0 0 0 0 0 0 0 0 0 0 0 0 0 0 0 0 0 0 0 0 0 0 0 0 0 0
0 0 0 0 0 0 0 0 0 0 0 0 0 0 0 0 0 0 0 0 0 0 0 0 0 0 0 0 0 0 0 0 0 0 0 0 0 0 0 0 0 0 0 0 0 0 0 0 0
0 0 0 0 0 0 0 0 0 0 0 0 0 0 0 0 0 0 0 0 0 0 0 0 0 0 0 0 0 0 0 0 0 0 0 0 0 0 0 0 0 0 0 0 0 0 0 0 0
Wind_Speed
15 13 5 1 0 8 17 16 14 11 10 19 16 15 14 13 11 7 6 13 16 10 10 17 24 25 26 26 26 26 26 25 25 24 23 22 19 17 15 14 14 14 13 12 12 12 11 11 11
11 10 3 1 6 11 13 14 17 19 14 12 14 14 14 12 7 5 8 14 15 8 7 14 22 23 25 25 26 26 25 25 25 24 24 23 22 21 18 15 14 15 15 14 13 13 12 11 11
11 8 1 7 14 11 9 11 13 20 20 11 10 12 10 8 6 5 9 13 10 8 7 14 23 23 24 26 26 26 26 26 25 25 25 24 23 22 21 19 17 16 14 14 13 14 13 12 11
5 2 6 12 19 17 13 12 10 12 14 14 11 11 8 3 2 6 9 8 9 11 10 13 23 24 24 25 25 25 25 25 25 25 25 24 23 23 22 21 20 18 16 15 14 14 14 12 12
3 5 11 13 14 12 13 14 16 17 10 13 13 10 7 3 1 3 6 9 11 11 11 14 24 26 26 25 26 25 25 25 25 24 26 26 24 22 22 21 21 21 20 18 16 15 14 13 13
2 5 10 12 13 12 13 15 15 16 14 13 10 10 7 7 7 6 9 10 11 12 12 14 23 27 27 26 26 26 25 26 26 25 26 26 24 23 23 22 22 21 22 21 18 16 15 15 14
8 9 11 11 10 9 8 8 14 13 13 12 8 8 6 8 8 8 9 10 11 13 13 14 14 18 24 27 26 27 25 25 26 25 26 26 25 24 23 24 24 24 23 22 20 18 17 16 15
2 6 11 9 8 7 9 9 9 12 10 10 12 9 6 8 9 9 9 10 11 12 13 14 15 15 15 16 24 27 27 26 26 25 25 25 23 23 23 23 24 25 25 24 22 20 19 17 16
5 9 9 7 7 9 10 9 9 10 13 14 14 13 10 9 9 10 10 11 12 14 13 12 14 14 14 14 19 19 21 22 23 19 24 19 10 11 13 21 24 26 26 26 24 25 22 18 14
9 6 8 10 11 12 12 11 9 10 14 13 11 11 10 9 10 11 13 14 15 15 14 12 12 12 12 13 11 9 11 11 12 11 13 9 9 10 15 20 23 25 25 24 26 27 23 15 8
8 8 9 13 15 14 13 12 11 10 9 10 9 10 10 11 11 12 13 12 11 12 12 13 12 11 11 9 9 6 7 7 9 11 12 10 9 9 9 8 11 12 15 11 16 16 12 12 9
9 12 11 11 10 11 9 8 10 12 8 8 8 9 9 11 11 12 11 11 11 11 13 13 13 12 11 10 8 8 7 7 8 9 12 10 8 9 10 9 9 8 7 9 9 9 13 14 14
12 12 14 14 14 15 15 12 11 9 7 7 8 9 9 10 10 10 10 11 12 12 13 13 13 13 12 9 9 10 9 9 10 8 9 11 9 9 10 10 9 10 8 9 10 10 12 13 14
12 15 14 12 11 9 12 10 6 6 5 5 6 7 8 9 11 10 11 11 12 12 13 13 13 13 13 10 9 7 8 9 9 8 10 12 11 10 10 10 10 9 10 10 9 11 11 11 12
16 13 11 8 8 10 10 10 7 5 4 4 5 7 8 8 9 9 9 10 11 12 13 13 14 14 15 13 11 9 8 10 7 8 9 12 11 11 12 11 10 11 12 12 10 11 9 11 12
8 7 7 7 8 8 4 6 5 3 3 4 5 6 6 7 9 8 9 9 10 11 12 12 13 13 14 12 10 9 9 10 8 7 8 12 12 12 11 10 10 13 13 12 12 10 11 11 10
7 5 8 5 4 5 3 7 5 2 1 2 4 6 6 6 8 8 8 8 9 11 11 11 11 12 13 12 10 9 9 9 9 7 6 9 10 11 10 10 9 10 10 10 12 12 11 12 12
3 3 7 8 2 1 5 8 5 2 0 2 5 6 5 5 6 6 8 9 9 9 10 11 12 12 12 9 8 7 8 8 8 8 8 10 9 11 9 10 13 12 9 9 11 12 11 11 12
5 6 7 6 2 0 6 7 6 4 2 5 6 5 5 6 6 7 8 8 8 9 11 12 12 12 11 9 10 9 9 9 8 7 11 11 11 12 9 9 11 12 10 11 14 13 13 11 10
4 6 5 6 4 2 5 6 7 5 4 3 2 3 6 7 7 8 9 8 8 9 10 11 11 12 11 9 9 8 10 9 8 8 9 10 10 10 11 11 9 11 10 11 12 13 10 9 10
4 5 4 2 5 2 3 6 9 7 5 4 1 5 8 9 9 9 9 9 9 9 10 12 11 11 11 11 8 9 8 8 7 8 7 8 10 10 8 10 9 9 9 9 12 12 12 10 9
4 5 5 4 4 5 7 4 8 9 7 5 4 7 7 7 7 8 9 9 8 8 7 9 10 10 9 10 9 11 10 10 11 9 8 10 10 11 8 8 9 9 9 11 12 12 12 11 9
4 2 5 5 4 4 7 4 5 8 6 4 7 6 6 7 8 9 9 8 7 7 7 7 9 8 9 9 9 9 8 8 9 9 10 9 9 10 10 9 8 9 8 10 12 13 13 10 9
8 7 6 4 3 5 4 5 3 3 5 5 5 5 6 7 8 8 7 7 7 7 7 7 8 9 9 9 9 8 9 10 11 11 10 10 8 8 9 12 9 9 7 9 11 12 14 12 11
7 7 2 2 3 2 2 1 5 6 6 2 4 5 7 8 7 7 8 8 8 8 8 8 9 9 9 9 9 9 9 9 9 10 10 11 9 9 9 12 10 9 8 10 11 12 13 13 12
6 6 4 4 5 5 3 2 5 6 3 2 5 5 7 8 7 7 7 7 7 8 8 8 9 9 9 9 9 8 8 6 6 8 9 9 8 9 10 11 11 11 11 13 12 10 12 12 12
5 5 2 3 6 6 2 6 4 3 2 4 5 6 7 7 7 6 6 6 6 7 7 8 9 10 10 9 9 8 8 8 8 9 8 7 8 11 12 12 11 12 12 13 13 10 13 13 12
2 2 3 3 5 6 9 1 4 4 2 4 5 6 7 7 6 6 6 6 6 6 6 7 8 8 9 9 9 11 9 9 9 9 9 9 10 11 13 12 11 13 13 14 13 12 13 15 14
1 2 1 3 3 3 7 2 5 4 2 5 6 6 6 6 6 6 6 6 6 6 6 7 7 8 8 9 9 10 9 9 9 9 10 10 9 11 12 13 13 14 14 14 13 14 16 17 15
3 3 2 3 4 3 5 2 5 4 4 6 5 6 7 7 7 6 6 7 6 7 7 7 7 7 8 8 9 10 10 10 9 10 11 12 12 10 12 13 14 15 15 14 15 16 16 17 13
Wind_Direction
307 295 259 225 119 66 61 49 44 64 76 58 55 64 72 56 42 62 318 311 319 326 7 3 16 21 21 21 22 21 19 17 15 13 7 1 353 344 337 336 333 329 328 327 327 326 320 310 304
302 296 298 281 83 75 56 57 47 41 92 88 57 55 63 62 43 8 314 313 320 338 29 14 15 21 21 20 20 19 18 17 15 12 8 5 1 357 350 343 339 331 325 323 322 318 313 306 297
273 268 311 43 60 64 54 35 79 59 49 65 72 49 51 37 18 335 298 305 322 357 30 22 17 18 20 20 18 17 14 13 12 11 9 5 2 2 0 354 348 340 330 322 319 312 307 304 297
279 249 73 75 73 52 49 29 23 83 55 54 81 71 70 37 313 282 291 326 5 14 17 21 19 15 15 17 14 14 13 11 10 9 6 4 4 4 4 2 357 350 341 328 316 311 304 304 302
223 80 84 87 80 65 44 40 48 55 62 61 76 87 81 22 230 310 1 19 21 15 12 14 15 13 10 11 10 7 8 8 6 8 6 2 359 1 2 2 2 355 346 337 324 314 308 306 304
247 93 95 95 97 87 61 38 57 60 50 35 86 99 72 27 18 29 32 26 24 17 13 10 11 10 6 3 7 3 3 5 1 3 5 1 358 358 360 0 358 353 348 343 331 317 308 303 300
68 87 104 110 102 76 56 54 44 55 47 17 19 86 73 28 18 25 40 30 26 21 15 12 7 7 3 357 1 360 358 3 359 359 1 359 358 358 357 358 354 351 348 344 337 323 309 300 297
12 99 97 91 87 88 77 68 52 46 52 33 32 64 59 26 25 21 31 32 24 23 16 14 5 5 1 351 357 357 354 359 357 356 358 359 356 356 354 356 350 349 347 342 338 336 321 307 297
47 71 54 48 98 115 112 98 84 81 81 72 66 70 61 37 29 28 25 23 21 19 14 13 5 1 0 351 354 353 350 355 354 351 353 355 351 351 351 350 350 350 346 344 346 344 336 321 298
41 67 54 45 82 97 90 84 99 81 68 69 66 59 50 48 36 29 27 19 15 11 9 9 2 357 360 353 351 347 347 349 347 346 345 349 351 352 354 345 349 349 344 349 347 342 339 335 315
58 90 89 65 78 88 82 61 66 100 67 60 58 55 42 40 39 32 28 20 13 7 5 5 359 355 360 352 349 346 343 343 342 344 346 352 353 349 349 342 343 341 343 349 344 342 335 327 320
88 85 99 99 92 90 89 86 66 70 88 80 68 56 51 40 38 34 23 16 11 7 5 3 359 355 356 352 348 347 343 343 342 344 349 357 356 348 347 341 336 336 340 344 343 332 326 327 322
90 89 84 85 83 86 90 90 95 94 96 90 78 64 53 48 39 34 22 17 10 6 3 2 356 356 354 351 352 349 344 346 343 343 349 5 358 348 347 336 335 333 342 343 332 325 327 328 322
108 112 113 117 116 112 108 108 95 105 111 100 86 73 64 52 45 29 22 14 8 4 3 360 355 358 353 351 351 345 345 343 340 342 352 11 359 349 343 334 334 337 343 333 327 327 327 325 325
122 120 129 140 126 139 124 90 95 120 125 94 81 77 69 59 53 35 23 18 9 4 2 0 356 358 352 347 350 350 347 339 337 343 352 11 359 350 342 336 336 344 340 333 333 328 332 331 329
155 152 142 145 149 179 247 111 123 141 110 79 64 66 54 54 48 37 22 23 13 7 1 2 357 355 349 344 353 349 346 339 336 343 353 3 352 349 341 336 342 345 339 337 336 340 338 330 325
191 207 125 134 177 201 211 119 146 154 129 82 63 54 41 43 43 33 20 29 20 12 359 357 356 356 349 347 352 343 343 338 335 340 355 356 347 344 342 332 341 340 336 339 336 336 334 331 328
3 15 115 117 71 160 93 121 137 157 211 59 52 37 21 31 40 31 22 34 24 13 1 355 357 355 348 349 345 338 342 337 333 341 351 350 347 342 340 332 337 337 334 336 330 326 331 331 329
359 7 76 106 110 140 133 141 148 173 155 46 29 6 358 25 27 32 30 33 19 10 5 354 357 353 350 352 344 342 341 336 331 342 345 346 346 339 337 337 337 334 332 332 330 330 329 330 329
3 359 68 132 146 204 154 159 154 168 97 65 316 344 10 19 16 21 22 28 17 11 6 353 356 351 350 350 340 340 333 327 329 339 337 338 339 339 340 342 340 336 331 327 329 328 324 327 337
38 40 355 340 139 224 196 190 171 157 146 196 239 37 24 17 14 11 14 20 13 13 8 353 350 350 349 347 341 340 328 330 335 335 332 335 337 332 337 341 335 330 330 327 326 326 329 326 326
38 26 315 274 196 205 181 244 165 166 188 192 69 44 26 21 16 13 16 15 10 14 7 352 346 346 346 344 342 341 339 335 332 331 328 332 333 327 335 337 334 331 331 327 326 331 323 322 322
324 313 281 275 236 261 190 243 154 156 183 103 52 33 25 26 24 19 17 9 9 15 6 350 341 342 343 342 339 336 332 327 325 326 329 330 327 327 334 336 332 329 326 327 325 325 320 316 311
286 251 226 246 239 263 192 194 144 136 96 53 28 18 29 29 29 20 11 5 11 12 0 345 341 343 343 341 336 336 330 329 328 332 330 328 325 328 333 334 330 323 324 327 323 321 316 313 308
341 336 298 277 231 228 105 248 99 96 85 58 17 23 36 32 30 15 6 6 8 359 355 348 346 343 342 339 337 332 328 327 326 329 326 326 327 329 327 331 326 323 326 325 321 318 314 312 310
327 8 24 324 312 311 213 141 111 118 154 84 41 41 40 36 31 17 11 9 1 355 353 348 344 340 340 338 335 326 327 324 320 322 320 322 324 321 321 327 323 324 327 325 318 313 315 314 312
353 42 11 293 275 274 254 109 140 165 207 48 34 46 40 37 24 15 11 8 2 356 351 345 341 339 339 336 332 323 327 322 320 319 317 319 320 322 326 322 328 329 327 321 316 313 314 311 306
38 334 313 306 332 308 297 96 143 150 27 22 35 42 39 34 21 16 9 6 0 354 347 342 339 337 335 334 331 330 324 321 321 321 321 322 321 322 321 324 330 330 324 319 316 316 311 310 305
289 239 330 270 230 272 299 327 104 116 48 45 41 48 45 35 25 13 6 1 353 351 345 337 336 336 334 331 327 322 320 322 325 324 323 321 319 322 325 328 331 328 322 319 315 316 315 314 307
318 338 342 309 304 263 272 286 139 136 75 65 48 53 52 41 29 15 4 353 349 347 341 336 335 336 331 328 326 323 324 327 327 326 326 323 320 322 329 330 329 326 322 316 313 314 318 315 315